"Pseudo-MPEC" for P10Sy95

Created 2019 Oct 19 13:07:26 UT using Find_Orb

Click here for an explanation of pseudo-MPECs

 
 Astrometry: 
     P10Sy95  C2019 10 07$/RxgfcDaQEO3p4L)Tp#,Astrometry/2;redacted;w%r$Cr\RKF51
     P10Sy95  C2019 10 075sclickkR=hereR)b'p3owIm?U+qS#vL\?xL#-yn_qBY[9lQ6bT]F51
     P10Sy95  C2019 10 07[d:forg[mD1s*ry0O,dDF[xh:4'a?q#sU_]oLrJ]6QBb*,76p56QF51
     P10Sy95  C2019 10 074%F`aAXdngIR6O$RB+^*5DB%;WFEulG[-BmL7ZexplanationOCJF51

Station data:
(F51) Pan-STARRS 1, Haleakala  (N20.707235 W156.255910)  US/Hawaii.
   Observers N. Primak, A. Schultz, S. Watters, J. Thiel, T. Goggia. Measurer
   PS1 Science Consortium. 1.8-m Ritchey-Chrétien + CCD.

Orbital elements:  P10Sy95
   Perihelion 2020 Jan 26.823311 +/- 96.8 TT = 19:45:34 (JD 2458875.323311)
Epoch 2019 Oct  8.0 TT = JDT 2458764.5   Earth MOID: 0.0049   AutoNEOCP
M 249.37532259 +/- 110              (J2000 ecliptic)
n   0.99820765 +/- 0.336            Peri.  119.27218 +/- 70
a   0.99156712 +/- 0.222            Node    10.76573 +/- 33
e   0.0487397 +/- 0.163             Incl.    0.72553 +/- 18
P   0.99/360.64d           H 29.7   G  0.15   U 12.0  SR
q 0.94323843 +/- 0.229    Q 1.03989581 +/- 0.671
From 4 observations 2019 Oct. 7 (53.5 min); mean residual 0".04
Residuals in arcseconds: 
191007 F51  .01+  .02+    191007 F51  .01+  .07+    
191007 F51  .02-  .06-    191007 F51  .00   .02-    

Ephemerides (geocentric):
Date (UTC) HH   RA              Dec         delta   r     elong  mag " sig PA
---- -- -- --  -------------   -----------  ------ ------ -----  --- ---- ---
2019 10 19 13  23 26 05.461   +31 21 37.50  875596 1.0008 143.3 20.1  38d 168
2019 10 19 14  23 25 04.512   +31 26 53.07  873098 1.0007 143.0 20.1  38d 168
2019 10 19 15  23 24 03.103   +31 32 08.51  870607 1.0007 142.8 20.1  38d 168
2019 10 19 16  23 23 01.229   +31 37 23.80  868125 1.0007 142.5 20.1  38d 168
2019 10 19 17  23 21 58.888   +31 42 38.89  865651 1.0006 142.2 20.1  38d 168
2019 10 19 18  23 20 56.076   +31 47 53.76  863186 1.0006 142.0 20.1  38d 168
2019 10 19 19  23 19 52.789   +31 53 08.36  860729 1.0005 141.7 20.1  38d 168
2019 10 19 20  23 18 49.024   +31 58 22.66  858281 1.0005 141.5 20.1  38d 168
2019 10 19 21  23 17 44.776   +32 03 36.64  855841 1.0005 141.2 20.1  38d 168
2019 10 19 22  23 16 40.043   +32 08 50.24  853410 1.0004 140.9 20.1  38d 168
2019 10 19 23  23 15 34.820   +32 14 03.43  850988 1.0004 140.7 20.1  38d 168
2019 10 20 00  23 14 29.104   +32 19 16.17  848575 1.0003 140.4 20.1  38d 168
2019 10 20 01  23 13 22.891   +32 24 28.42  846171 1.0003 140.1 20.1  38d 168
2019 10 20 02  23 12 16.179   +32 29 40.15  843776 1.0003 139.9 20.1  38d 168
2019 10 20 03  23 11 08.962   +32 34 51.30  841390 1.0002 139.6 20.1  38d 168
2019 10 20 04  23 10 01.238   +32 40 01.84  839014 1.0002 139.3 20.1  38d 168
2019 10 20 05  23 08 53.003   +32 45 11.72  836647 1.0001 139.1 20.1  38d 168
2019 10 20 06  23 07 44.254   +32 50 20.91  834289 1.0001 138.8 20.1  38d 168
2019 10 20 07  23 06 34.986   +32 55 29.34  831941 1.0001 138.5 20.1  38d 168
2019 10 20 08  23 05 25.197   +33 00 36.99  829602 1.0000 138.2 20.1  38d 167
2019 10 20 09  23 04 14.884   +33 05 43.80  827274 1.0000 137.9 20.1  38d 167
2019 10 20 10  23 03 04.042   +33 10 49.72  824955 0.9999 137.7 20.1  38d 167
2019 10 20 11  23 01 52.668   +33 15 54.71  822646 0.9999 137.4 20.1  38d 167
2019 10 20 12  23 00 40.759   +33 20 58.71  820347 0.9999 137.1 20.1  38d 167
2019 10 20 13  22 59 28.312   +33 26 01.67  818058 0.9998 136.8 20.1  38d 167
2019 10 20 14  22 58 15.323   +33 31 03.55  815780 0.9998 136.5 20.1  38d 167
2019 10 20 15  22 57 01.789   +33 36 04.28  813512 0.9997 136.2 20.1  38d 167
2019 10 20 16  22 55 47.707   +33 41 03.83  811254 0.9997 135.9 20.1  38d 167
2019 10 20 17  22 54 33.074   +33 46 02.12  809007 0.9996 135.7 20.1  38d 167
2019 10 20 18  22 53 17.886   +33 50 59.11  806771 0.9996 135.4 20.1  38d 167
2019 10 20 19  22 52 02.142   +33 55 54.74  804545 0.9996 135.1 20.1  38d 167
2019 10 20 20  22 50 45.836   +34 00 48.95  802330 0.9995 134.8 20.1  38d 167
2019 10 20 21  22 49 28.968   +34 05 41.69  800126 0.9995 134.5 20.1  38d 167
2019 10 20 22  22 48 11.533   +34 10 32.88  797933 0.9994 134.2 20.1  38d 167
2019 10 20 23  22 46 53.530   +34 15 22.48  795751 0.9994 133.9 20.1  38d 167
2019 10 21 00  22 45 34.955   +34 20 10.43  793581 0.9994 133.6 20.1  38d 167
2019 10 21 01  22 44 15.805   +34 24 56.65  791422 0.9993 133.3 20.1  38d 167
2019 10 21 02  22 42 56.079   +34 29 41.08  789274 0.9993 133.0 20.1  38d 167
2019 10 21 03  22 41 35.773   +34 34 23.67  787138 0.9992 132.7 20.1  38d 167
2019 10 21 04  22 40 14.886   +34 39 04.34  785014 0.9992 132.3 20.1  38d 167
2019 10 21 05  22 38 53.414   +34 43 43.03  782901 0.9991 132.0 20.1  38d 167
2019 10 21 06  22 37 31.357   +34 48 19.67  780800 0.9991 131.7 20.1  38d 167
2019 10 21 07  22 36 08.711   +34 52 54.19  778712 0.9991 131.4 20.1  38d 167
2019 10 21 08  22 34 45.474   +34 57 26.52  776635 0.9990 131.1 20.1  38d 167
2019 10 21 09  22 33 21.645   +35 01 56.60  774571 0.9990 130.8 20.1  38d 167
2019 10 21 10  22 31 57.222   +35 06 24.35  772519 0.9989 130.5 20.1  38d 167
2019 10 21 11  22 30 32.204   +35 10 49.69  770480 0.9989 130.1 20.1  38d 167
2019 10 21 12  22 29 06.587   +35 15 12.56  768453 0.9989 129.8 20.1  38d 167